GFSNE_con_lsi_336.txt.gz
Lid_Strength_Index
1 1 1 1 2 1 1 2 4 6 5 2 2 1 0 0 0 1 1 0 -0 0 -0 -0 -0 -1 -1 -1 -1 -1 -1 -1 -2 -2 -2 -2 -2 -1
0 1 1 0 0 0 0 1 1 3 5 2 1 1 1 0 -0 -1 -0 -1 -0 0 -0 -0 -0 -0 -0 -0 -0 -1 -1 -1 -1 -1 -2 -2 -2 -2
1 1 1 0 1 1 0 1 1 2 4 2 1 -0 0 0 -0 -0 -1 -1 -0 -0 -0 -0 0 0 0 -0 -0 -0 -1 -1 -1 -1 -1 -1 -1 -1
1 1 1 1 1 1 1 1 1 1 2 4 2 1 1 0 0 0 0 -0 -0 -0 -0 0 1 1 1 1 1 0 0 0 -0 -0 -1 -1 -1 -1
1 1 1 1 1 1 1 1 1 1 1 2 3 1 1 0 1 0 1 1 0 -1 -0 1 1 1 2 1 1 1 2 2 2 2 1 1 1 1
2 1 1 1 1 1 1 1 1 2 2 2 2 2 2 1 1 2 2 1 1 1 0 0 1 1 2 2 1 1 3 4 4 3 3 3 3 2
2 1 0 -0 -0 0 1 1 1 2 2 2 3 2 2 2 3 1 2 2 2 2 1 1 2 1 1 2 1 1 4 4 4 4 4 5 5 5
2 1 1 -0 0 0 0 0 0 1 2 2 3 3 3 2 1 2 2 3 4 1 2 2 2 3 3 2 3 4 5 5 5 5 6 6 6 6
2 2 2 1 1 1 1 1 1 1 0 1 2 2 2 1 1 2 2 2 3 1 1 3 2 3 2 3 3 4 5 6 6 6 6 6 7 7
1 1 2 2 1 1 2 1 1 1 1 1 0 1 0 0 0 1 1 1 1 1 0 4 3 3 3 2 3 4 5 6 6 6 6 7 8 8
1 1 2 2 3 5 5 4 3 2 1 2 2 2 3 3 2 0 2 3 3 2 1 2 2 3 4 5 4 4 6 6 6 6 6 7 8 8
2 2 3 3 5 5 5 6 6 5 3 2 2 2 2 1 2 0 1 3 3 4 1 2 2 2 4 3 4 4 5 6 6 7 7 7 8 5
3 3 3 5 5 6 6 5 5 4 4 4 3 3 2 1 1 -0 -0 1 2 3 0 1 2 3 4 5 4 4 4 5 5 6 7 7 8 6
4 3 3 5 6 6 5 6 6 6 5 4 4 4 3 2 1 0 -0 -0 -0 0 -0 -0 2 2 4 6 6 4 4 4 5 5 5 7 8 8
3 4 5 6 6 4 5 5 4 3 4 4 4 3 2 2 1 1 -0 -0 0 -0 -1 -0 1 1 2 3 5 4 6 6 5 5 6 6 6 6
4 4 5 5 6 5 3 2 2 2 2 3 3 2 1 2 1 1 1 1 2 2 -0 -1 -0 0 2 3 3 5 5 7 6 6 6 6 5 5
6 4 4 4 5 5 4 3 2 2 3 2 3 3 3 2 2 1 1 2 3 3 2 3 2 2 1 2 4 5 6 6 6 6 7 7 7 5
5 6 5 6 6 6 5 5 4 3 3 3 3 2 3 3 2 2 2 2 3 3 4 3 4 4 4 4 3 6 6 7 6 6 6 8 8 7
6 6 7 7 7 6 6 6 6 6 5 5 4 3 3 3 3 3 2 2 3 3 3 3 4 4 6 9 7 6 7 7 6 7 7 6 7 7
6 7 7 7 6 6 7 6 5 5 6 6 5 4 2 3 3 3 2 3 4 4 4 4 4 5 6 8 9 7 7 6 6 8 9 8 8 8
7 7 7 7 7 7 7 6 6 6 6 6 6 5 4 3 4 3 3 5 5 4 5 5 6 9 6 5 8 9 7 7 5 6 7 7 8 8
6 7 7 7 8 7 7 6 6 6 6 6 6 5 6 4 4 4 4 4 5 6 7 6 5 5 5 7 10 10 9 7 6 6 6 6 5 7
6 7 8 8 7 7 7 7 7 6 6 6 6 6 6 5 4 4 4 4 5 6 6 7 7 7 7 8 9 9 8 8 7 8 8 6 6 5

GFSNE_con_lsi_339.txt.gz
Lid_Strength_Index
0 0 0 1 1 0 1 1 3 5 4 2 1 -1 -1 -1 -1 -2 -2 -1 -1 -0 0 0 0 -1 -1 -1 -1 -1 -1 -1 -2 -2 -2 -2 -2 -2
-0 -0 -0 -0 -0 -0 0 0 1 2 4 1 1 -0 -1 -1 -2 -1 -1 -1 -1 -1 -0 0 0 0 -0 -0 -0 -1 -1 -1 -1 -1 -2 -2 -2 -2
-1 -0 -0 -1 0 -0 -0 0 1 1 3 2 0 -1 -0 -0 -1 -1 -2 -1 -1 -0 -0 -0 1 1 1 0 -0 -0 -1 -1 -1 -1 -1 -1 -1 -1
0 -0 -0 -0 -0 -0 0 0 0 0 1 2 1 1 0 -1 -1 -0 -0 -2 -1 -1 -0 -0 0 1 1 1 1 1 1 0 0 -0 -0 -1 -1 -1
-0 0 0 -0 0 0 0 0 0 0 1 1 2 0 0 -0 -0 -1 -0 -0 -2 -1 -0 -0 0 1 1 1 2 2 2 2 1 1 1 0 -0 -1
-0 -0 -0 -0 0 0 0 0 0 1 1 1 1 1 1 -0 0 1 1 -0 1 -0 -1 -0 0 0 2 2 1 1 2 3 4 3 3 2 2 1
-0 -0 -1 -1 -0 -0 0 0 0 1 1 1 2 2 2 2 2 1 1 1 0 -0 0 0 -0 -0 -0 1 -0 1 2 3 3 3 4 4 4 4
0 -0 -1 -1 -1 -0 -0 -0 -0 1 1 2 2 2 2 1 1 1 1 2 4 -1 0 1 -0 1 -0 -1 1 2 3 4 4 4 5 5 6 5
-0 -0 0 -0 -0 -0 0 1 0 1 1 1 2 1 1 0 0 1 1 2 2 0 0 2 -0 2 1 1 3 4 5 5 5 6 6 7 7 7
-0 -0 -0 -0 0 1 1 0 0 -0 -0 -0 -0 0 -0 -1 -0 0 0 1 0 0 -1 3 1 2 2 2 4 5 5 5 5 6 7 8 8 8
-0 -0 1 -0 4 4 1 2 2 2 1 2 3 3 4 3 2 0 2 3 3 2 -0 1 1 1 2 3 3 5 5 6 6 6 7 8 8 8
-0 0 3 2 5 5 1 1 3 3 3 2 2 2 1 -0 2 0 0 3 2 3 0 2 2 1 3 3 4 5 5 6 6 6 7 7 8 5
1 1 1 4 5 6 6 0 2 3 2 2 2 2 1 0 0 -0 -0 0 2 2 -0 -0 1 2 3 3 4 4 5 6 5 6 7 7 7 5
1 1 1 5 6 6 4 5 6 4 1 2 2 2 1 1 1 0 -0 -0 -1 -0 -1 -1 1 1 3 4 4 4 5 5 5 6 6 7 8 8
1 3 6 6 6 4 4 5 5 0 1 2 2 2 1 0 -0 0 1 -0 -0 -1 -1 -1 0 0 1 2 3 3 5 5 5 5 5 5 5 5
3 3 4 5 6 4 2 2 1 0 1 2 2 1 1 2 1 1 1 1 1 1 -0 -1 -0 0 1 1 1 4 3 6 5 5 4 4 4 4
4 3 3 3 3 3 3 2 1 2 2 2 2 1 1 2 2 0 1 1 2 2 2 1 -1 -1 -0 1 2 3 5 5 4 4 4 4 4 4
3 4 4 3 3 3 3 3 3 3 3 3 3 2 1 3 2 2 1 2 2 2 2 3 2 3 3 4 1 3 4 5 5 4 4 5 6 4
4 4 4 4 3 3 3 4 4 3 2 2 3 2 2 3 3 2 2 2 2 2 3 2 2 3 4 7 4 3 4 4 4 4 4 4 6 6
3 3 3 4 4 4 4 4 4 3 3 3 3 3 4 4 3 3 2 2 2 3 3 3 2 3 6 6 6 5 5 3 4 6 7 8 9 9
3 3 4 4 4 4 4 3 3 3 3 3 4 4 5 4 3 3 2 5 4 3 5 6 6 7 5 4 7 7 6 6 4 6 7 7 6 6
4 4 4 5 5 4 4 3 3 4 3 3 4 5 5 4 4 4 4 4 4 6 6 5 4 3 4 6 8 8 8 7 6 7 7 6 3 5
4 5 5 4 4 5 6 4 4 4 3 3 4 4 5 5 4 4 5 5 6 5 5 5 5 4 5 6 7 7 7 7 7 7 6 6 6 6

GFSNE_con_lsi_342.txt.gz
Lid_Strength_Index
-1 -1 0 -0 -0 0 0 1 2 5 4 1 1 -1 -1 -2 -2 -2 -2 -1 -1 -0 -0 0 -0 -0 -0 -1 -1 -1 -1 -1 -2 -2 -2 -2 -2 -2
-0 -1 -0 -0 -0 -0 -0 0 1 2 4 1 1 -1 -1 -1 -2 -2 -2 -1 -1 -0 -0 -1 -0 0 0 0 -0 -1 -1 -1 -1 -1 -1 -2 -2 -2
-1 -1 -0 -1 -0 0 0 -0 0 1 2 1 0 -1 -1 -1 -1 -2 -2 -2 -2 -0 -1 -0 0 0 -0 0 1 0 -0 -0 -1 -1 -1 -1 -1 -2
0 -0 -0 -0 -1 -1 -0 -0 -0 -0 1 2 1 0 -0 -1 -1 -1 -1 -1 -2 -1 -0 -0 0 1 1 1 1 1 1 1 0 0 -0 -1 -0 -1
-1 -0 -0 -0 -0 0 -0 0 0 0 0 1 1 0 0 -1 -1 -1 -1 -1 -1 -1 -0 0 0 0 1 1 1 2 2 3 2 2 1 0 -0 -1
-1 -1 -0 -0 -0 -0 -0 -0 -0 1 1 1 2 1 1 -0 -0 1 1 -0 0 -1 -1 -0 0 0 1 0 1 1 3 4 4 3 3 3 2 1
-1 -1 -1 -0 0 -0 0 -0 0 1 1 1 2 2 2 2 2 1 1 0 0 -0 -0 -1 -1 -1 -1 -0 -0 0 2 3 4 4 3 4 4 3
-0 -0 -1 -1 -0 -0 -0 0 -0 1 1 2 2 2 2 1 1 1 1 2 3 -1 0 1 -1 -0 -0 -1 1 2 3 3 4 4 4 4 5 5
-0 -0 -0 -0 -1 -1 -0 0 0 0 0 0 2 1 1 1 0 1 1 1 2 0 -0 2 -1 1 -1 -1 2 2 3 4 4 4 5 5 5 5
-1 -1 -1 -1 -0 1 -0 -0 -0 -1 -1 -0 0 0 0 -0 -0 0 0 0 0 -0 -1 3 0 1 -1 -1 2 4 4 4 5 4 5 6 7 7
-0 -1 -1 -1 4 4 0 0 0 0 -0 1 1 3 3 4 3 1 1 2 2 2 -1 1 1 1 -0 0 -1 5 5 5 5 6 6 7 8 8
-1 -0 2 1 4 5 1 0 1 0 0 -0 0 1 2 -0 2 -0 0 2 2 3 0 1 1 1 2 1 1 4 5 6 7 7 7 8 8 6
1 1 0 4 6 6 6 0 0 1 0 -0 0 0 -0 0 0 -0 -1 0 2 2 0 -0 1 1 1 3 2 5 5 6 7 7 8 8 7 6
1 1 0 6 6 6 5 5 5 4 0 1 1 1 1 1 0 -0 -1 -1 -1 -0 -0 -1 1 1 2 3 4 5 5 5 6 6 6 7 8 8
1 3 5 6 6 5 5 5 5 0 1 1 2 1 1 -0 -0 -1 -1 -1 -1 -1 -1 -1 -0 -0 1 2 3 4 7 6 6 6 6 6 6 5
3 2 2 3 5 4 2 2 1 1 1 1 2 2 1 0 1 0 1 1 2 1 -1 -2 -1 -0 1 1 1 3 3 6 5 5 5 5 4 4
5 1 1 2 2 2 2 1 2 2 2 3 2 2 2 1 1 1 1 1 2 2 2 0 -1 -1 -1 0 2 2 3 4 5 5 5 6 5 4
2 2 2 2 3 3 4 4 4 4 3 2 2 2 2 2 3 2 1 2 2 2 2 1 1 2 1 1 1 2 3 4 4 4 5 6 5 3
2 2 3 3 4 4 4 4 4 3 2 3 3 3 3 4 4 3 2 2 2 2 1 1 2 2 4 6 4 2 2 4 4 5 5 4 4 3
2 3 4 4 5 4 4 4 3 2 3 3 3 4 4 4 4 3 3 2 2 2 2 2 2 2 3 4 5 4 5 3 4 5 6 6 7 7
3 4 5 4 4 4 4 3 3 3 3 3 3 4 5 4 4 3 2 5 4 3 4 5 5 6 2 3 5 5 4 5 3 3 3 4 5 5
4 4 4 4 4 4 3 3 3 3 3 4 3 3 4 4 4 4 4 5 5 5 5 4 3 3 4 5 7 7 6 5 5 5 6 5 5 7
3 3 4 4 4 4 4 3 4 3 3 4 3 3 4 4 4 5 5 5 5 5 5 5 5 5 5 6 7 7 6 6 6 7 7 7 7 7

GFSNE_con_lsi_345.txt.gz
Lid_Strength_Index
-0 -1 0 0 -0 -0 1 1 3 5 4 2 2 -1 -1 -2 -2 -2 -1 -1 -1 0 0 0 -0 -0 -1 -1 -1 -1 -1 -1 -1 -2 -2 -2 -2 -2
-0 -0 -0 -0 -0 -0 -0 0 1 2 4 1 1 -1 -1 -1 -2 -2 -2 -2 -1 -1 -0 0 0 -0 -0 -0 -0 -1 -1 -1 -0 -1 -1 -2 -2 -2
-1 -1 -1 -1 -0 -0 -0 0 1 1 3 1 0 -1 -1 -1 -1 -2 -2 -2 -2 -1 -0 -0 1 1 0 0 -0 -0 0 -0 -0 -0 -0 -1 -1 -1
-0 -1 -0 -0 -0 -0 0 0 1 0 2 3 1 1 0 -1 -1 -1 -0 -1 -1 -1 -1 0 0 1 1 1 1 1 1 1 0 0 -0 -0 -1 -1
-0 -0 -0 -0 0 1 0 1 1 1 1 2 2 1 0 -0 -0 -0 -1 -0 -1 -2 -1 -0 1 0 1 1 1 2 2 2 2 2 1 0 0 -0
-0 0 0 0 0 0 1 0 0 1 1 2 2 2 1 -0 1 1 1 0 1 -0 -1 -1 -0 0 1 1 1 1 2 2 3 3 3 3 2 2
-0 -0 -0 -1 1 0 0 0 1 1 1 2 2 2 2 2 2 1 2 1 1 -0 0 -0 -1 -1 -1 1 -1 -0 1 2 3 4 4 4 4 3
1 0 -0 -0 -0 -0 -0 0 1 1 1 2 2 2 2 1 1 1 2 3 3 0 0 1 -1 -0 -1 -2 1 2 2 3 3 4 4 4 4 5
-0 0 1 0 -0 -0 0 1 0 0 0 0 2 2 2 1 1 2 2 2 2 1 1 2 -0 1 -1 -2 2 2 3 3 3 4 4 5 5 5
-0 -0 0 0 1 1 1 0 -0 -0 -1 0 -0 0 0 -0 0 1 1 1 1 0 -0 3 0 1 -0 -1 2 3 3 4 4 4 5 6 6 7
-0 0 -0 0 4 4 0 1 0 0 -0 0 1 2 3 3 2 1 2 2 3 2 0 1 1 1 -0 -0 1 3 4 4 4 5 5 6 7 7
0 0 1 2 4 4 1 1 2 1 0 0 0 0 1 -0 2 -0 1 2 2 3 1 2 1 1 2 1 1 2 2 4 5 5 6 5 7 4
1 1 0 4 5 6 6 1 2 1 2 1 0 0 0 0 -0 -1 -0 1 2 2 0 0 1 1 2 3 2 3 3 4 5 6 7 7 7 6
1 1 1 6 6 6 4 4 5 5 1 1 1 1 1 1 1 -0 -1 -1 -1 1 -1 -0 1 2 2 3 4 3 4 4 4 7 6 7 7 7
2 3 5 6 6 4 4 4 5 1 2 2 2 1 1 1 -1 -0 -0 -1 -1 -1 -1 -1 1 1 1 2 4 4 5 4 4 6 7 7 7 6
2 1 2 4 4 4 2 1 1 1 2 2 3 2 2 2 0 0 1 1 1 1 -1 -1 -0 -0 1 1 2 4 4 5 5 6 6 5 5 5
5 1 2 2 2 2 2 2 3 3 3 3 3 3 3 1 1 2 1 1 3 2 2 0 -1 -1 0 1 2 2 3 4 5 5 6 7 6 5
3 2 3 3 4 4 4 3 3 3 2 3 3 3 3 3 3 3 3 2 2 2 2 1 1 2 1 1 1 2 3 4 4 5 6 7 7 4
2 2 3 4 4 4 3 3 3 2 2 3 3 4 4 4 5 4 3 3 2 2 2 1 2 2 4 5 3 2 4 4 5 6 5 6 6 4
3 4 4 4 4 4 3 3 3 2 3 3 3 3 3 4 4 4 3 2 2 3 3 2 2 2 3 4 5 4 4 3 5 6 6 7 7 7
4 4 3 4 4 4 4 3 3 3 3 3 3 3 4 4 4 4 3 6 4 2 3 3 2 6 1 2 5 5 4 4 3 5 5 6 5 4
3 3 4 4 5 4 4 4 3 3 3 3 3 3 4 4 5 5 5 5 5 5 4 3 2 2 3 4 5 5 5 5 5 5 6 5 4 5
3 3 4 4 4 4 4 4 4 5 4 4 4 4 3 4 4 4 4 5 4 5 5 5 4 4 5 5 6 6 5 5 5 6 6 6 6 5